Regional Weather Roundup
Issued by NWS Wakefield, VA

Home | Current Version | Previous Version | Text Only | Print | Product List | Glossary Off
Versions: 1 2 3 4 5 6 7 8 9 10 11 12 13 14 15 16 17 18 19 20 21 22 23 24 25 26 27 28 29 30 31 32 33 34 35 36 37 38 39 40 41 42 43 44 45 46 47 48 49 50

000
ASUS41 KAKQ 101315
RWRAKQ

REGIONAL WEATHER ROUNDUP
NATIONAL WEATHER SERVICE WAKEFIELD VA
800 AM EST SUN DEC 10 2017

Note: "fair" indicates few or no clouds below 12,000 feet with no
significant weather and/or obstructions to visibility. * = Denotes
station may not report precipitation (e.g., rain,snow,etc.),
thunder or fog.

VAZ042-051-052>054-056-101400-
NORTHERN VIRGINIA

CITY           SKY/WX    TMP DP  RH WIND       PRES   REMARKS
WASH NATIONAL  MOCLDY    36  22  56 VRB7      30.03R
DULLES         MOCLDY    32  22  66 W6        30.02R
FORT BELVOIR   MOCLDY    28  25  90 CALM      30.03R
QUANTICO       MOCLDY    34  28  79 SW3       30.06R
FREDERICKSBRG* CLEAR     28  28 100 CALM      30.05R
STAFFORD*      PTCLDY    24  24 100 CALM      30.08R
WARRENTON      PTCLDY    25  22  88 CALM      30.03R
CULPEPER*      PTCLDY    26  22  87 SW5       30.05R
MANASSAS*      CLOUDY    31  26  82 W3        30.04R
LEESBURG*      CLOUDY    34  27  75 NW14      30.01R WCI  24
WINCHESTER     CLOUDY    32  19  59 W12G18    30.00R WCI  23
FRONT ROYAL*   PTSUNNY   32  21  64 W8        30.00R
LURAY*         MOSUNNY   30  23  74 SW6       30.01R
$$

VAZ048-049-060>072-079>083-101400-
CENTRAL AND SOUTH CENTRAL VIRGINIA

CITY           SKY/WX    TMP DP  RH WIND       PRES   REMARKS
RICHMOND       CLEAR     31  26  82 W9        30.07R
CHESTERFIELD*  NOT AVBL
PETERSBURG*    CLEAR     28  25  86 W6        30.09R
HANOVER        CLEAR     29  25  85 W3        30.08R
TAPPAHANNOCK*    N/A    N/A N/A N/A MISG        N/A
QUINTON*       FAIR      29  28  99 CALM      30.07R
CHARLOTTSVILLE CLEAR     31  21  66 CALM      30.03R
GORDONSVILLE*  SUNNY     26  25  97 SW3       30.04R
ORANGE*        CLEAR     27  23  86 CALM      30.04R
LOUISA*        CLEAR     27  23  85 W8        30.08S
BUMPASS*       FAIR      27  26  96 CALM      30.05R
FARMVILLE*     CLEAR     28  28 100 SW5       30.07R
CREWE*         FAIR      27  27 100 W5        30.08R
FORT PICKETT*  NOT AVBL
CHASE CITY*    FAIR      27  27 100 CALM      30.10R
CLARKSVILLE*   FAIR      28  27  93 SW5       30.11R
SOUTH HILL*    CLEAR     28  26  93 W6        30.16R
LAWRENCEVILLE* FAIR      29  26  88 W3        30.10R
EMPORIA*       CLEAR     30  27  86 SW6       30.12R
$$

VAZ088>098-101400-
SOUTHEAST VIRGINIA

CITY           SKY/WX    TMP DP  RH WIND       PRES   REMARKS
NORFOLK        PTCLDY    34  33  96 W7        30.08R
VIRGINIA BEACH MOCLDY    33  30  88 W7        30.07R
NORFOLK NAVAL  PTCLDY    36  31  82 W12       30.10R
WEST POINT*    CLEAR    N/A N/A N/A W7        30.09R
SALUDA*        FAIR      31  31  99 W5        30.06R
NEWPORT NEWS   CLEAR     34  31  88 W8        30.08R
LANGLEY AFB    CLEAR     34  33  96 W8        30.07R
FORT EUSTIS    CLEAR     34  29  84 W7        30.06R
WILLIAMSBURG*  CLEAR     34  34 100 W7        30.09R
HR EXEC AP*    FAIR      32  31  96 W5        30.10R
FRANKLIN*      CLEAR     32  28  86 W7        30.11R
US460-WAKEFLD  CLEAR     30  29  96 SW6       30.10R
$$

VAZ020-022-025-037-045-101400-
WEST CENTRAL AND SOUTHWEST VIRGINIA

CITY           SKY/WX    TMP DP  RH WIND       PRES   REMARKS
STAUNTON*      MOCLDY    27  20  75 S3        30.04R
WAYNESBORO*    PTSUNNY   27  19  73 W3        30.00R
HOT SPRINGS VA LGT SNOW  19  19  96 NW18G31   29.89R WCI   4
LYNCHBURG      MOCLDY    30  20  66 SW7       30.06R
DANVILLE       PTCLDY    26  25  96 S5        30.13R
SOUTH BOSTON*  FAIR      27  24  90 W3        30.12R
MARTINSVILLE     N/A    N/A N/A N/A MISG        N/A
ROANOKE        CLOUDY    31  19  61 W14G20    30.09R WCI  21
BLACKSBURG     CLOUDY    28  19  71 W9G16     30.07R
DUBLIN*        CLOUDY    28  19  69 W12       30.07R WCI  18
MARION*        CLOUDY    26  17  66 W14G22    30.07R WCI  15
HILLSVILLE*    CLOUDY    24  16  71 NW18      30.01R WCI  10
RICHLANDS*     CLOUDY    24  16  73 NW9       30.08R
WISE*          CLOUDY    25  19  80 W6        30.10R
ABINGDON*      CLOUDY    28  20  74 W7        30.13R
$$

MDZ021>025-VAZ099-100-101400-
SOUTHERN MARYLAND AND THE DELMARVA PENINSULA

CITY           SKY/WX    TMP DP  RH WIND       PRES   REMARKS
PATUXENT RIVER PTCLDY    32  27  81 W13       30.04R WCI  22
BAY BRIDGE APT CLEAR     34  25  69 MISG      30.01R HAZE
LEONARDTOWN    CLEAR     30  28  93 NW6       30.05R
DOVER          CLEAR     29  29  99 W8        29.99R
GEORGETOWN     CLEAR     29  26  89 SW5       30.01R
EASTON         CLEAR     34  27  75 W6        30.04R
CAMBRIDGE      CLEAR     32  27  80 W7        30.02R
SALISBURY      CLEAR     29  27  92 W6        30.02R
OCEAN CITY     CLEAR     30  29  96 W6        30.02R
WALLOPS ISLAND CLEAR     32  28  85 NW7       30.04R
ACCOMACK*      CLEAR     36  29  75 NW9       30.05R
$$

NCZ012>017-030>032-101400-
NORTH CENTRAL AND EASTERN NORTH CAROLINA

CITY           SKY/WX    TMP DP  RH WIND       PRES   REMARKS
ROANOKE RAPIDS FAIR      32  28  86 CALM      30.12R
RALEIGH        PTCLDY    27  24  89 W3        30.15R
ELIZABETH CITY CLEAR     34  32  92 W9        30.10R
AHOSKIE*       CLEAR     29  28  96 CALM      30.12R
EDENTON*       CLEAR     36  32  86 W6        30.12R
CURRITUCK*     CLEAR     32  32  99 W8        30.09R
KILL DEVIL HLS MOCLDY    37  32  84 NW7       30.07R
MANTEO         MOCLDY    37  32  81 NW8       30.09R
CAPE HATTERAS  CLEAR     40  32  73 NW14G23   30.09R
TARBORO*       NOT AVBL
GOLDSBORO      CLEAR     33  26  74 W8        30.14R
WASHINGTON     CLEAR     33  28  81 W3        30.14R
GREENVILLE     CLEAR     32  28  86 CALM      30.15R
NEW BERN       CLEAR     33  29  85 W8        30.17R
WILMINGTON     CLEAR     35  28  75 W8        30.19R
$$

VAZ048-101400-
ELSEWHERE

CITY           SKY/WX    TMP DP  RH WIND       PRES   REMARKS
HARRISBURG PA  MOCLDY    33  23  66 W8        29.96R
BALTIMORE      PTCLDY    30  24  78 W8        29.99R
ANNAPOLIS      CLEAR     32  26  78 W7        30.00R
ANDREWS AFB    MOCLDY    33  22  65 W8        30.01R
PHILADELPHIA   PTCLDY    29  21  72 W13       29.97R WCI  19
HENDERSON NC   CLEAR     25  22  87 CALM      30.11R
GREENSBORO     PTCLDY    26  21  81 W8        30.13R
ROCKY MOUNT    CLEAR     31  27  85 W6        30.14R
$$

VAZ100-101400-
MARINE

STATION/POSITION TIME  TEMP    WIND        PRES    WAVE   SWELL
                       AIR SEA DIR/SP/G            HT/PER HT/PER
                 (UTC) (F)     (DEG/KT/KT) (MB)    (FT/S) (FT/S)
BRANDYWINE LGT   1236   36     300/ 24/ 28 1015.3R
CAPE MAY NJ      1248   36 43  300/ 20/ 28 1014.6R
LEWES DE         1236   31 45  270/ 10/ 12 1015.6R
15NM E FENWICK I 1250   39 54  290/ 21/ 25 1015.6R   7/ 9   3/ 9
OCEAN-CITY-INLET 1236   31 47  290/  8/ 10 1016.6R
WACHAPREAGUE VA  1248   35 41  250/  2/  2 1017.4R
THOMAS POINT MD  1300   35 47  280/ 14/ 15   N/A
GOOSES REEF MD   1300   36 48  270/ 14/ 17 1017.3    1/ 2
COVE POINT MD    1248   34     280/  9/ 11 1017.8R
SOLOMONS ISLAND  1236   35 49  260/ 10/ 13 1016.8R
BISHOPS HEAD MD  1248   37 39  310/ 19/ 24 1017.6R
PINEY POINT MD   1248          340/ 21/ 23   N/A
POTOMAC MD       1300   37 49  260/ 12/ 16 1016.9    1/ 2
CAMBRIDGE MD     1248   34 45              1017.2R
LEWISETTA VA     1248   32 44  270/  7/  9 1017.8R
RAPPAHANNOCK LGT 1248          280/ 10/ 14 1018.0R
STINGRAY PT      1250   35     290/ 12/ 14 1017.9R
YORK RVR RNG VA  1248   37     300/ 15/ 17 1018.6R
YORKTOWN VA      1248   36 51  270/ 11/ 13 1018.0R
JAMESTOWN VA     1300      49  280/ 12/ 14   N/A     1/ 2
DOMINION TERM VA 1248   35     280/ 13/ 15 1018.7R
KIPTOPEKE VA     1248      48  310/ 14/ 17   N/A
CAPE HENRY VA    1248   35     240/  8/ 12   N/A
WILLOUBY STN VA  1236   36     270/ 15/ 17 1018.0R
S CRANEY ISL VA  1248   34     270/  5/ 11 1018.3R
CAPE HENRY BUOY  1300      56                N/A     4/ 9
1ST LANDING BUOY 1300   38 51  290/ 17/ 21 1018.2    2/ 3
CAPE CHARLES BUO 1251      54                N/A     3/ 9
64NM E OF VA BCH 1250   44 61  310/ 17/ 23 1016.9R   7/ 9   3/ 9
DUCK PIER NC     1248   36 53  300/ 13/ 16 1018.1R
44100 DUCK FRF   1245      57                N/A     5/ 8   2/11
44056 DUCK FRF   1300      54                N/A     4/ 8
OREGON INLET NC  1236   37 49  280/ 11/ 16 1018.3R
HATTERAS NC      1248   40 53  310/ 22/ 25 1018.6R
DIAMOND SHLS NC  1250   44 68  310/ 21/ 31 1018.7R   8/ 7   3/ 8
CAPE LOOKOUT NC  1300          320/ 20/ 24 1020.6R
$$



USA.gov is the U.S. government's official web portal to all federal, state and local government web resources and services.